STARLINK-32753, 62481

Orbit data source: Space-Track

STARLINK-32753, 62481 is a payload satellite owned by SpaceX/Seattle (US) in LEO that was launched on Tue, 31 Dec 2024 UTC via an FALCON 9 launch vehicle from the Air Force Eastern Test Range (AFETR). Payload-class satellites include a variety of spacecraft equipped with specific instruments for various scientific and technological missions. These include communications satellites like Starlink; space stations such as the ISS; scientific satellites like the Hubble; Earth observation satellites from companies like Planet Labs, Umbra, and HawkEye 360; GPS; miniature CubeSats for education and research; and military/defense satellites.

Loading next visibility...
Identifier
62481, 2024-254V
Orbit
LEO
Country
Flag of USUS
Related business
Manufacturer
SpaceX/Seattle
Mission
Operational Commercial Communications
Bus & Motor
STARLINK V2M, Unknown motor
Mass
730 kg wet, ~700 kg dry
Launch date (UTC)
2024-12-31 (1 year ago)
Launch vehicle
FALCON 9
Launch site
Air Force Eastern Test Range (AFETR)
Object type
Payload
Rocket body
Debris
Shape & HBR
Box + 2 Pan, 17.7 m
Radar Cross Section
33.884 m², Large (>1 m²)

Expand to show TLE details & history
Last TLE update: 17 hours ago

TLE from 17 hours ago
0 STARLINK-32753
1 62481U 24254V   26033.95273664  .00029111  00000-0  10620-2 0  9999
2 62481  43.0022 212.2691 0003012 259.9904 100.0608 15.27615414 62347
Epoch: 2026-02-02T22:51Z
TLE epoch observation values (Epoch: 2026-02-02T22:51:56.445Z)
Latitude
-0.00002°
Longitude
96.14326°
Altitude
483.08 km
Speed
7.625 km/s
True Right ascension
14h 09m 04s
True Declination
0° 00' 00"
Sunlit
Object was in daylight at epoch
Visualization orbit readout
Latitude
Unknown
Longitude
Unknown
Altitude
Unknown
Speed
Unknown
Apparent Right ascension
Unknown
Apparent Declination
Unknown
Sunlit
N/A
Visualization observer readout
Local Sidereal Time
18:05:17
Azimuth
Unknown
Elevation
Unknown
Doppler factor
Unknown
Orbital elements
Apogee altitude
486.955 km
Perigee altitude
482.821 km
Semi-major axis
6,863.025 km
Eccentricity
0.0003
Inclination
43.0022°
RAAN
212.2691°
Arg. of periapsis
259.9904°
True anomaly
100.09478°
Mean anomaly
100.0608°
Eccentric anomaly
100.07779°
Mean motion
3.81742 °/min
Orbital period
94.3 mins
BSTAR
0.001062
Loading maneuver chart data...
Computing Atmospheric mass density...
Loading historical data...
Loading historical data...
Loading historical data...
Loading historical data...
Loading historical data...
Loading historical data...
Loading historical data...

Documentation

Showing up to 5 results
|